Regional Weather Roundup
Issued by NWS

Home | Current Version | Previous Version | Text Only | Print | Product List | Glossary On
Versions: 1 2 3 4 5 6 7 8 9 10 11 12 13 14 15 16 17 18 19 20 21 22 23 24 25 26 27 28 29 30 31 32 33 34 35 36 37 38 39 40 41 42 43 44 45 46 47 48 49 50
000
ASUS43 KLMK 030410
RWRKY
KENTUCKY REGIONAL WEATHER ROUNDUP
NATIONAL WEATHER SERVICE LOUISVILLE KY
1100 PM EST TUE MAR 02 2021

NOTE "FAIR" INDICATES FEW OR NO CLOUDS BELOW 12,000 FEET
WITH NO SIGNIFICANT WEATHER AND/OR OBSTRUCTIONS TO VISIBILITY.

KYZ001>023-026-027-061>063-070>075-030500-
WESTERN AND SOUTH CENTRAL KENTUCKY

CITY           SKY/WX    TMP DP  RH WIND       PRES   REMARKS
PADUCAH        CLEAR     35  30  82 SW3       30.14F
HENDERSON      CLEAR     34  25  69 CALM      30.14F
OWENSBORO      CLEAR     36  29  75 CALM      30.15F
HOPKINSVILLE   CLEAR     38  30  74 CALM      30.14F
BOWLING GREEN  CLEAR     36  26  67 CALM      30.14F
GLASGOW        CLEAR     32  25  76 CALM      30.14F
$$

KYZ024-025-028>034-038-045-046-053-030500-
NORTH CENTRAL KENTUCKY

CITY           SKY/WX    TMP DP  RH WIND       PRES   REMARKS
LOUISVILLE/SDF CLEAR     38  17  42 CALM      30.13F
LOUISVILLE/LOU CLEAR     33  20  58 CALM      30.13S
FORT KNOX      CLEAR     29  20  66 CALM      30.13F
$$

KYZ035>037-039>044-047>052-055>060-089>105-030500-
NORTHEAST KENTUCKY

CITY           SKY/WX    TMP DP  RH WIND       PRES   REMARKS
LEXINGTON      CLEAR     32  19  58 CALM      30.12S
COVINGTON      CLEAR     29  19  66 S6        30.10F WCI  23
FRANKFORT      CLEAR     27  21  78 CALM      30.11S
$$

KYZ054-064>069-076>088-106>120-030500-
SOUTHEAST KENTUCKY

CITY           SKY/WX    TMP DP  RH WIND       PRES   REMARKS
JACKSON        CLEAR     40  14  34 CALM      30.09F
LONDON         CLEAR     35  24  64 CALM      30.11S
SOMERSET       CLEAR     34  21  60 CALM      30.14S
MIDDLESBORO    PTCLDY    32  29  88 CALM      30.13S
MONTICELLO     CLEAR     29  26  89 N12       30.14F WCI  19
$$





USA.gov is the U.S. government's official web portal to all federal, state and local government web resources and services.